CENTAURI-2 (43722 NORAD) Tracking and Keplerian Element Data

This shows tracking and keplerian element data for the satellite.

Feedback or suggestion? Click here.




ElementValue
Catalog43722
NameCENTAURI-2
Epoch Orbit172
Epoch Day344.50732129
Epoch Year2018
RAAN49.5063
Inclination97.484
Eccentricity0.0016874
Argument of Perigee281.5334
Mean Anonmoly78.4009
Mean Motion15.25808338
Decay Rate2.191E-05
L11 43722U 18096D 18344.50732129 .00002191 00000-0 88330-4 0 9990
L22 43722 97.4840 49.5063 0016874 281.5334 78.4009 15.25808338 1722

Live tracking and technical data element details for CENTAURI-2 (NORAD 43722). CENTAURI-2 can be tracked NOW for your location showing map with azimuth and elevation plus other details from your city location.

Track the satellite on the map from your city or location and see movement details for azimuth, elevation, latitude, longitude, range, height, and movement on the map or in text.







IsCatalogInMostPopularTable: catalog: 43722, numindb: 3
Update: records affected: 1



GetName: 43722 CENTAURI-2

Hit Count: updated at: Tue, 11 Dec 2018 02:17:20 GMT